| time (UTC) | temp F | wind direction | speed knots | gust knots | rain 1hr in | rain 24hr in | rain mn in | humidity % | barometer mb |
| 20260902071601 | 55 | 49 | 6.1 | 8.7 | 0.00 | 0.00 | 0.00 | 85 | 1022.3 |
| 20260902070107 | 55 | 47 | 6.1 | 8.7 | 0.00 | 0.00 | 0.00 | 85 | 1022.1 |
| 20260902064606 | 55 | 53 | 5.2 | 9.6 | 0.00 | 0.00 | 0.00 | 86 | 1022.0 |
| 20260902063113 | 55 | 47 | 5.2 | 8.7 | 0.00 | 0.00 | 0.00 | 88 | 1021.9 |
| 20260902061625 | 55 | 49 | 5.2 | 7.8 | 0.00 | 0.00 | 0.00 | 89 | 1022.0 |
| 20260902060110 | 54 | 63 | 5.2 | 7.0 | 0.00 | 0.00 | 0.00 | 89 | 1021.8 |
| 20260902054601 | 54 | 68 | 4.3 | 7.8 | 0.00 | 0.00 | 0.00 | 90 | 1021.9 |
| 20260902053107 | 55 | 49 | 4.3 | 6.1 | 0.00 | 0.00 | 0.00 | 89 | 1021.8 |
| 20260902051616 | 55 | 57 | 4.3 | 8.7 | 0.00 | 0.00 | 0.00 | 89 | 1021.7 |
| 20260902050111 | 56 | 55 | 5.2 | 9.6 | 0.00 | 0.00 | 0.00 | 89 | 1021.6 |
| 20260902044636 | 56 | 44 | 4.3 | 7.8 | 0.00 | 0.00 | 0.00 | 89 | 1021.4 |
| 20260902043106 | 56 | 40 | 4.3 | 7.0 | 0.00 | 0.00 | 0.00 | 90 | 1021.1 |
| 20260902041606 | 56 | 52 | 4.3 | 7.8 | 0.00 | 0.00 | 0.00 | 90 | 1021.1 |
| 20260902040111 | 56 | 52 | 4.3 | 7.8 | 0.00 | 0.00 | 0.00 | 88 | 1021.0 |
| 20260902034604 | 58 | 51 | 4.3 | 6.1 | 0.00 | 0.00 | 0.00 | 89 | 1020.9 |
| 20260902033110 | 58 | 74 | 0.9 | 3.5 | 0.00 | 0.00 | 0.00 | 89 | 1020.8 |
| 20260902031619 | 59 | 32 | 1.7 | 3.5 | 0.00 | 0.00 | 0.00 | 90 | 1020.7 |
| 20260902030109 | 58 | 187 | 0.0 | 1.7 | 0.00 | 0.00 | 0.00 | 90 | 1020.6 |
| 20260902024605 | 58 | 187 | 0.9 | 2.6 | 0.00 | 0.00 | 0.00 | 90 | 1020.6 |
| 20260902023108 | 57 | 170 | 2.6 | 4.3 | 0.00 | 0.00 | 0.00 | 87 | 1020.6 |
| 20260902021605 | 57 | 166 | 2.6 | 4.3 | 0.00 | 0.00 | 0.00 | 86 | 1020.5 |
| 20260902020108 | 57 | 155 | 0.9 | 2.6 | 0.00 | 0.00 | 0.00 | 85 | 1020.6 |
| 20260902014603 | 57 | 144 | 1.7 | 3.5 | 0.00 | 0.00 | 0.00 | 84 | 1020.5 |
| 20260902013112 | 57 | 109 | 2.6 | 3.5 | 0.00 | 0.00 | 0.00 | 85 | 1020.5 |
| 20260902011602 | 58 | 82 | 2.6 | 3.5 | 0.00 | 0.00 | 0.00 | 85 | 1020.5 |
| 20260902010106 | 57 | 98 | 2.6 | 5.2 | 0.00 | 0.00 | 0.00 | 85 | 1020.4 |
| 20260902004609 | 57 | 83 | 2.6 | 5.2 | 0.00 | 0.00 | 0.00 | 85 | 1020.3 |
| 20260902003110 | 58 | 80 | 2.6 | 4.3 | 0.00 | 0.00 | 0.00 | 85 | 1020.3 |
| 20260902001613 | 59 | 76 | 2.6 | 3.5 | 0.00 | 0.00 | 0.00 | 82 | 1020.3 |
| 20260902000107 | 60 | 78 | 2.6 | 3.5 | 0.00 | 0.00 | 0.00 | 78 | 1020.2 |
| 20260901234610 | 61 | 138 | 1.7 | 3.5 | 0.00 | 0.00 | 0.00 | 75 | 1020.2 |
| 20260901233134 | 63 | 145 | 0.9 | 1.7 | 0.00 | 0.00 | 0.00 | 72 | 1020.2 |
| 20260901231616 | 63 | 145 | 0.9 | 2.6 | 0.00 | 0.00 | 0.00 | 71 | 1020.1 |
| 20260901230111 | 65 | 146 | 1.7 | 3.5 | 0.00 | 0.00 | 0.00 | 68 | 1020.1 |
| 20260901224604 | 66 | 115 | 0.9 | 4.3 | 0.00 | 0.00 | 0.00 | 68 | 1019.8 |
| 20260901223104 | 66 | 124 | 3.5 | 7.0 | 0.00 | 0.00 | 0.00 | 66 | 1019.8 |
| 20260901221613 | 67 | 132 | 6.1 | 8.7 | 0.00 | 0.00 | 0.00 | 64 | 1019.8 |
| 20260901220107 | 67 | 121 | 5.2 | 8.7 | 0.00 | 0.00 | 0.00 | 64 | 1019.7 |
| 20260901214607 | 67 | 125 | 6.1 | 12.2 | 0.00 | 0.00 | 0.00 | 63 | 1019.7 |
| 20260901213107 | 68 | 112 | 8.7 | 12.2 | 0.00 | 0.00 | 0.00 | 62 | 1019.5 |
| 20260901211603 | 68 | 121 | 8.7 | 12.2 | 0.00 | 0.00 | 0.00 | 62 | 1019.4 |
| 20260901210105 | 69 | 126 | 9.6 | 13.9 | 0.00 | 0.00 | 0.00 | 61 | 1019.2 |
| 20260901204607 | 70 | 100 | 10.4 | 13.0 | 0.00 | 0.00 | 0.00 | 58 | 1019.1 |
| 20260901203108 | 71 | 104 | 9.6 | 13.0 | 0.00 | 0.00 | 0.00 | 56 | 1019.1 |
| 20260901201605 | 72 | 100 | 9.6 | 13.9 | 0.00 | 0.00 | 0.00 | 54 | 1018.9 |
| 20260901200107 | 73 | 138 | 10.4 | 13.9 | 0.00 | 0.00 | 0.00 | 54 | 1019.1 |
| 20260901194609 | 73 | 100 | 10.4 | 13.9 | 0.00 | 0.00 | 0.00 | 54 | 1019.1 |
| 20260901193106 | 73 | 127 | 7.8 | 13.0 | 0.00 | 0.00 | 0.00 | 54 | 1019.1 |
| 20260901191604 | 73 | 121 | 9.6 | 12.2 | 0.00 | 0.00 | 0.00 | 54 | 1019.1 |
| 20260901190105 | 73 | 101 | 9.6 | 13.9 | 0.00 | 0.00 | 0.00 | 55 | 1019.2 |
| 20260901184608 | 73 | 113 | 10.4 | 14.8 | 0.00 | 0.00 | 0.00 | 55 | 1019.2 |
| 20260901183123 | 73 | 119 | 10.4 | 13.9 | 0.00 | 0.00 | 0.00 | 56 | 1019.2 |
| 20260901181605 | 73 | 89 | 9.6 | 14.8 | 0.00 | 0.00 | 0.00 | 56 | 1019.2 |
| 20260901180108 | 73 | 115 | 10.4 | 14.8 | 0.00 | 0.00 | 0.00 | 56 | 1019.1 |
| 20260901174607 | 73 | 129 | 8.7 | 14.8 | 0.00 | 0.00 | 0.00 | 57 | 1018.9 |
| 20260901173155 | 73 | 128 | 8.7 | 13.9 | 0.00 | 0.00 | 0.00 | 57 | 1019.1 |
| 20260901171606 | 74 | 123 | 8.7 | 12.2 | 0.00 | 0.00 | 0.00 | 60 | 1019.1 |
| 20260901170108 | 73 | 128 | 4.3 | 10.4 | 0.00 | 0.00 | 0.00 | 65 | 1019.1 |
| 20260901164610 | 72 | 121 | 4.3 | 11.3 | 0.00 | 0.00 | 0.00 | 65 | 1018.9 |
| 20260901163119 | 73 | 66 | 7.0 | 10.4 | 0.00 | 0.00 | 0.00 | 63 | 1018.9 |
| 20260901161609 | 73 | 87 | 6.1 | 10.4 | 0.00 | 0.00 | 0.00 | 61 | 1018.9 |
| 20260901160108 | 74 | 57 | 3.5 | 9.6 | 0.00 | 0.00 | 0.00 | 60 | 1018.9 |
| 20260901154607 | 72 | 88 | 5.2 | 7.8 | 0.00 | 0.00 | 0.00 | 66 | 1019.1 |
| 20260901153106 | 71 | 82 | 5.2 | 7.8 | 0.00 | 0.00 | 0.00 | 66 | 1019.2 |
| 20260901151610 | 72 | 70 | 3.5 | 7.0 | 0.00 | 0.00 | 0.00 | 63 | 1019.2 |
| 20260901150107 | 72 | 62 | 2.6 | 8.7 | 0.00 | 0.00 | 0.00 | 62 | 1019.2 |
| 20260901144611 | 71 | 121 | 1.7 | 6.1 | 0.00 | 0.00 | 0.00 | 63 | 1019.2 |
| 20260901143110 | 70 | 66 | 2.6 | 4.3 | 0.00 | 0.00 | 0.00 | 65 | 1019.2 |
| 20260901141617 | 70 | 48 | 2.6 | 5.2 | 0.00 | 0.00 | 0.00 | 66 | 1019.3 |
| 20260901140107 | 69 | 170 | 2.6 | 5.2 | 0.00 | 0.00 | 0.00 | 68 | 1019.2 |
| 20260901134606 | 68 | 123 | 1.7 | 7.8 | 0.00 | 0.00 | 0.00 | 70 | 1019.2 |
| 20260901133106 | 67 | 119 | 4.3 | 7.0 | 0.00 | 0.00 | 0.00 | 69 | 1019.2 |
| 20260901131609 | 67 | 67 | 4.3 | 7.8 | 0.00 | 0.00 | 0.00 | 68 | 1018.8 |
| 20260901130110 | 66 | 59 | 2.6 | 7.0 | 0.00 | 0.00 | 0.00 | 71 | 1018.8 |
| 20260901124610 | 65 | 86 | 1.7 | 5.2 | 0.00 | 0.00 | 0.00 | 72 | 1018.9 |
| 20260901123110 | 64 | 55 | 4.3 | 7.8 | 0.00 | 0.00 | 0.00 | 74 | 1018.5 |
| 20260901121611 | 62 | 32 | 2.6 | 7.0 | 0.00 | 0.00 | 0.00 | 78 | 1018.7 |
| 20260901120111 | 60 | 46 | 3.5 | 7.8 | 0.00 | 0.00 | 0.00 | 79 | 1018.6 |
| 20260901114605 | 58 | 27 | 3.5 | 7.0 | 0.00 | 0.00 | 0.00 | 82 | 1018.4 |
| 20260901113106 | 57 | 25 | 4.3 | 7.8 | 0.00 | 0.00 | 0.00 | 82 | 1018.3 |
| 20260901111607 | 57 | 41 | 5.2 | 9.6 | 0.00 | 0.00 | 0.00 | 82 | 1018.2 |
| 20260901110108 | 58 | 33 | 7.0 | 9.6 | 0.00 | 0.00 | 0.00 | 81 | 1018.1 |
| 20260901104605 | 58 | 49 | 6.1 | 9.6 | 0.00 | 0.00 | 0.00 | 83 | 1017.9 |
| 20260901103105 | 56 | 46 | 5.2 | 7.8 | 0.00 | 0.00 | 0.00 | 86 | 1017.7 |
| 20260901101612 | 56 | 32 | 4.3 | 7.0 | 0.00 | 0.00 | 0.00 | 86 | 1017.9 |
| 20260901100111 | 57 | 5 | 3.5 | 4.3 | 0.00 | 0.00 | 0.00 | 85 | 1017.8 |
| 20260901094606 | 57 | 352 | 2.6 | 4.3 | 0.00 | 0.00 | 0.00 | 85 | 1017.8 |
| 20260901093107 | 58 | 327 | 2.6 | 4.3 | 0.00 | 0.00 | 0.00 | 86 | 1017.8 |
| 20260901091607 | 57 | 302 | 3.5 | 7.0 | 0.00 | 0.00 | 0.00 | 84 | 1017.9 |
| 20260901090105 | 58 | 315 | 4.3 | 7.0 | 0.00 | 0.00 | 0.00 | 81 | 1018.0 |
| 20260901084626 | 58 | 309 | 5.2 | 7.0 | 0.00 | 0.00 | 0.00 | 80 | 1017.9 |
| 20260901083107 | 58 | 302 | 4.3 | 7.0 | 0.00 | 0.00 | 0.00 | 82 | 1017.9 |
| 20260901081608 | 57 | 302 | 4.3 | 7.0 | 0.00 | 0.00 | 0.00 | 82 | 1017.9 |
| 20260901080114 | 56 | 280 | 3.5 | 7.0 | 0.00 | 0.00 | 0.00 | 81 | 1017.9 |
| 20260901074633 | 56 | 265 | 4.3 | 7.0 | 0.00 | 0.00 | 0.00 | 81 | 1018.1 |
| 20260901073105 | 56 | 306 | 4.3 | 7.0 | 0.00 | 0.00 | 0.00 | 81 | 1018.0 |